sat.trackr.live / text

‹ back to catalog

STARLINK-34641

NORAD 64797 · 2025-150H

PAYLOAD ACTIVE UNKNOWN

§ Identity

Operator
Country
US
Launch date
2025-07-16
Launch site
AFWTR
Launch vehicle
Mass (kg)
RCS (m²)

Purposes: comms

External: N2YO · Heavens-Above · Gunter

§ Orbital elements

Epoch: 2026-09-20T14:25:38.749152Z

Period
96.11 min
Inclination
70.0033°
Eccentricity
0.0003599
Mean motion
14.98333577 rev/d
Perigee alt
569.5 km
Apogee alt
574.5 km
Semi-major
6,950.2 km
B*
1.1713e-4
RAAN
2.9750°
Arg perigee
268.5568°
Mean anomaly
91.5178°
Rev number
6,654

§ Raw data

STARLINK-346411 64797U 25150H   26263.60114293  .00001305  00000+0  11713-3 0  99952 64797  70.0033   2.9750 0003599 268.5568  91.5178 14.98333577 66549

JSON: /api/v1/satellites/64797 · /tle

For live sub-satellite position, see the globe view (requires WebGL).

§ Visibility from observer

Set your observer location to see the next 7 days of passes ≥ 10°. The values pass through the URL so the page stays shareable.

No JS? Fill the form by hand. The geolocation button needs JavaScript.